Weather History for Fort Wayne, IN

Change the Weather History Date:

Friday, April 27, 2012

  Actual Average Record
Temperature  
Mean Temperature 42 °F 54 °F  
Max Temperature 55 °F 66 °F 85 °F (1986)
Min Temperature 28 °F 43 °F 28 °F (1976)
Degree Days  
Heating Degree Days 23 11  
Month to date heating degree days 375 427  
Since 1 July heating degree days 4764 5851  
Cooling Degree Days 0 0  
Month to date cooling degree days 5 0  
Year to date cooling degree days 32 0  
Moisture  
Dew Point 26 °F    
Average Humidity 57    
Maximum Humidity 85    
Minimum Humidity 29    
Precipitation  
Precipitation T in 0.11 in 1.14 in (1959)
Month to date precipitation 0.72 3.20  
Year to date precipitation 8.72 10.21  
Snow  
Snow 0.00 in 0.00 in T in (2004)
Month to date snowfall T 1.0  
Since 1 July snowfall 32.2 33.5  
Snow Depth 0.00 in    
Sea Level Pressure  
Sea Level Pressure 30.22 in    
Wind  
Wind Speed 6 mph (NE)    
Max Wind Speed 17 mph    
Max Gust Speed 21 mph    
Visibility 10 miles    
Events      
T = Trace of Precipitation, MM = Missing Value Source: NWS Daily Summary

Daily Weather History Graph

Daily Weather History Graph

Search for Another Location

Airport:

Trip Planner

Search our weather history database for the weather conditions in past years. The results will help you decide how hot, cold, wet, or windy it might be!

Date:

Astronomy

Apr. 27, 2012 Rise Set
Actual Time 6:43 AM EDT 8:33 PM EDT
Civil Twilight 6:13 AM EDT 9:03 PM EDT
Nautical Twilight 5:38 AM EDT 9:39 PM EDT
Astronomical Twilight 4:59 AM EDT 10:18 PM EDT
Moon 11:19 AM EDT (4/27) 1:21 AM EDT (4/27)
Length of Visible Light 14h 49m
Length of Day
13h 50m
Waxing Crescent, 33% of the Moon is Illuminated
Apr 27
Waxing Crescent
Apr 29
First Quarter
May 5
Full
May 12
Last Quarter
May 20
New

Hourly Weather History & Observations

Time (EDT) Temp. Windchill Dew Point Humidity Pressure Visibility Wind Dir Wind Speed Gust Speed Precip Events Conditions
12:54 AM 37.0 °F 30.4 °F 30.9 °F 79% 30.12 in 10.0 mi North 9.2 mph - N/A   Partly Cloudy
1:54 AM 36.0 °F 29.6 °F 28.9 °F 76% 30.12 in 10.0 mi North 8.1 mph - N/A   Partly Cloudy
2:54 AM 33.1 °F 27.7 °F 28.0 °F 82% 30.13 in 10.0 mi North 5.8 mph - N/A   Clear
3:54 AM 32.0 °F 28.7 °F 26.1 °F 79% 30.17 in 10.0 mi NW 3.5 mph - N/A   Partly Cloudy
4:54 AM 30.9 °F - 27.0 °F 85% 30.19 in 10.0 mi Calm Calm - N/A   Partly Cloudy
5:54 AM 30.0 °F 25.2 °F 26.1 °F 85% 30.20 in 10.0 mi NNE 4.6 mph - N/A   Partly Cloudy
6:54 AM 30.0 °F 26.5 °F 24.1 °F 79% 30.22 in 10.0 mi NNE 3.5 mph - N/A   Partly Cloudy
7:54 AM 34.0 °F 28.8 °F 26.1 °F 73% 30.25 in 10.0 mi NNE 5.8 mph - N/A   Partly Cloudy
8:54 AM 37.9 °F 30.9 °F 26.1 °F 62% 30.27 in 10.0 mi NE 10.4 mph - N/A   Scattered Clouds
9:54 AM 41.0 °F 33.5 °F 26.1 °F 55% 30.29 in 10.0 mi NE 13.8 mph - N/A   Scattered Clouds
10:54 AM 43.0 °F 38.2 °F 25.0 °F 49% 30.30 in 10.0 mi NNE 8.1 mph - N/A   Partly Cloudy
11:54 AM 46.0 °F 41.0 °F 26.1 °F 46% 30.30 in 10.0 mi ENE 10.4 mph 16.1 mph N/A   Partly Cloudy
12:54 PM 48.0 °F - 26.1 °F 42% 30.28 in 10.0 mi Variable 6.9 mph - N/A   Scattered Clouds
1:54 PM 48.9 °F - 25.0 °F 39% 30.26 in 10.0 mi Variable 5.8 mph 16.1 mph N/A   Mostly Cloudy
2:54 PM 51.1 °F - 21.0 °F 31% 30.26 in 10.0 mi Calm Calm - N/A   Mostly Cloudy
3:54 PM 52.0 °F - 21.9 °F 31% 30.24 in 10.0 mi Variable 4.6 mph - N/A   Mostly Cloudy
4:54 PM 54.0 °F - 23.0 °F 30% 30.21 in 10.0 mi Variable 5.8 mph - N/A   Mostly Cloudy
5:54 PM 54.0 °F - 24.1 °F 31% 30.23 in 10.0 mi Calm Calm - N/A   Mostly Cloudy
6:54 PM 52.0 °F - 25.0 °F 35% 30.23 in 10.0 mi ESE 4.6 mph - N/A   Mostly Cloudy
7:54 PM 51.1 °F - 26.1 °F 38% 30.21 in 10.0 mi East 9.2 mph - N/A   Mostly Cloudy
8:54 PM 50.0 °F - 28.0 °F 43% 30.19 in 10.0 mi East 6.9 mph - N/A   Overcast
9:54 PM 50.0 °F - 26.6 °F 40% 30.17 in 10.0 mi East 9.2 mph - N/A   Overcast
10:54 PM 48.9 °F - 27.0 °F 43% 30.19 in 10.0 mi ESE 9.2 mph - N/A   Overcast
11:54 PM 48.0 °F - 27.0 °F 44% 30.18 in 10.0 mi East 9.2 mph - N/A   Overcast